Weather History for KVYS - March, 2012

Change the Weather History Date:

Friday, March 30, 2012

  Actual Average Record
Temperature  
Mean Temperature 51 °F -  
Max Temperature 61 °F 52 °F 76 °F (1967)
Min Temperature 41 °F 31 °F 8 °F (1969)
Degree Days  
Heating Degree Days 14    
Growing Degree Days 1 (Base 50)    
Moisture  
Dew Point 45 °F    
Average Humidity 74    
Maximum Humidity 82    
Minimum Humidity 67    
Precipitation  
Precipitation 0.01 in - - ()
Sea Level Pressure  
Sea Level Pressure 29.76 in    
Wind  
Wind Speed 12 mph (NNE)    
Max Wind Speed 18 mph    
Max Gust Speed 25 mph    
Visibility 10 miles    
Events Rain , Thunderstorm    
Averages and records for this station are not official NWS values.
T = Trace of Precipitation, MM = Missing Value Source: NWS Daily Summary

Daily Weather History Graph

Daily Weather History Graph

Search for Another Location

Airport or City:

Trip Planner

Search our weather history database for the weather conditions in past years. The results will help you decide how hot, cold, wet, or windy it might be!

Date:

Astronomy

Mar. 30, 2012 Rise Set
Actual Time 6:42 AM CDT 7:20 PM CDT
Civil Twilight 6:14 AM CDT 7:48 PM CDT
Nautical Twilight 5:41 AM CDT 8:21 PM CDT
Astronomical Twilight 5:07 AM CDT 8:55 PM CDT
Moon 11:44 AM CDT (3/30) 1:59 AM CDT (3/30)
Length of Visible Light 13h 33m
Length of Day
12h 37m
Waxing Crescent, 49% of the Moon is Illuminated
Mar 30
Waxing Crescent
Mar 30
First Quarter
Apr 6
Full
Apr 13
Last Quarter
Apr 21
New

Hourly Weather History & Observations

Time (CDT) Temp. Windchill Dew Point Humidity Pressure Visibility Wind Dir Wind Speed Gust Speed Precip Events Conditions
12:15 AM 41.4 °F 34.0 °F 33.8 °F 74% 29.92 in 10.0 mi East 13.8 mph - N/A   Overcast
12:35 AM 41.2 °F 33.7 °F 34.0 °F 76% 29.90 in 10.0 mi East 13.8 mph - N/A   Overcast
12:55 AM 41.0 °F 34.3 °F 34.2 °F 77% 29.88 in 10.0 mi East 11.5 mph - N/A   Mostly Cloudy
1:15 AM 41.0 °F 34.7 °F 35.6 °F 81% 29.86 in 10.0 mi East 10.4 mph - N/A   Scattered Clouds
1:35 AM 41.9 °F 36.3 °F 35.6 °F 78% 29.85 in 10.0 mi East 9.2 mph - N/A   Clear
1:55 AM 42.4 °F 37.5 °F 35.8 °F 77% 29.85 in 10.0 mi East 8.1 mph - N/A   Scattered Clouds
2:15 AM 43.5 °F 35.8 °F 36.5 °F 76% 29.82 in 10.0 mi ESE 17.3 mph 21.9 mph N/A   Mostly Cloudy
2:35 AM 43.7 °F 35.7 °F 36.5 °F 76% 29.81 in 10.0 mi ESE 18.4 mph - N/A   Scattered Clouds
2:55 AM 43.3 °F 35.5 °F 36.5 °F 77% 29.80 in 10.0 mi ESE 17.3 mph - N/A   Clear
3:15 AM 43.3 °F 36.5 °F 36.9 °F 78% 29.78 in 10.0 mi ESE 13.8 mph - N/A   Clear
3:35 AM 43.7 °F 37.3 °F 37.2 °F 78% 29.77 in 10.0 mi ESE 12.7 mph - N/A   Clear
3:55 AM 44.6 °F 38.4 °F 37.9 °F 77% 29.75 in 10.0 mi ESE 12.7 mph - N/A   Clear
4:15 AM 44.6 °F 38.1 °F 39.2 °F 81% 29.75 in 10.0 mi ESE 13.8 mph - N/A Thunderstorm Scattered Clouds
4:35 AM 45.5 °F 40.8 °F 39.6 °F 80% 29.75 in 10.0 mi SE 9.2 mph - N/A Rain Light Rain
4:55 AM 46.4 °F 39.5 °F 41.0 °F 81% 29.72 in 10.0 mi SE 17.3 mph - 0.01 in Thunderstorm Thunderstorm
5:15 AM 48.2 °F - 42.4 °F 80% 29.72 in 10.0 mi SE 16.1 mph 25.3 mph N/A   Mostly Cloudy
5:35 AM 49.5 °F - 43.0 °F 78% 29.71 in 10.0 mi SSE 16.1 mph 23.0 mph N/A   Scattered Clouds
5:55 AM 50.0 °F - 43.9 °F 79% 29.70 in 10.0 mi SSE 18.4 mph - N/A   Overcast
6:15 AM 50.9 °F - 44.6 °F 79% 29.68 in 10.0 mi SSE 13.8 mph - N/A Thunderstorm Overcast
6:35 AM 51.1 °F - 44.6 °F 78% 29.70 in 10.0 mi South 13.8 mph - N/A   Overcast
6:55 AM 51.3 °F - 45.0 °F 79% 29.70 in 10.0 mi South 15.0 mph - N/A   Overcast
7:15 AM 51.4 °F - 45.3 °F 80% 29.73 in 10.0 mi Calm Calm - N/A   Overcast
7:35 AM 51.8 °F - 46.4 °F 82% 29.72 in 10.0 mi SSE 3.5 mph - N/A   Overcast
7:55 AM 52.3 °F - 45.7 °F 78% 29.71 in 10.0 mi SE 5.8 mph - N/A   Overcast
8:15 AM 53.6 °F - 45.9 °F 75% 29.71 in 10.0 mi SE 4.6 mph - N/A   Overcast
8:35 AM 53.6 °F - 46.2 °F 76% 29.71 in 10.0 mi SE 3.5 mph - N/A Thunderstorm Overcast
8:55 AM 54.7 °F - 46.9 °F 75% 29.70 in 10.0 mi Calm Calm - N/A   Overcast
9:15 AM 55.8 °F - 47.5 °F 74% 29.70 in 10.0 mi Calm Calm - N/A   Mostly Cloudy
9:35 AM 56.3 °F - 48.0 °F 74% 29.70 in 10.0 mi Calm Calm - N/A   Overcast
9:55 AM 56.5 °F - 48.4 °F 74% 29.71 in 10.0 mi West 5.8 mph - N/A   Overcast
10:15 AM 57.4 °F - 49.3 °F 74% 29.71 in 10.0 mi WNW 10.4 mph - N/A   Overcast
10:35 AM 57.6 °F - 49.5 °F 74% 29.72 in 10.0 mi WNW 12.7 mph - N/A   Mostly Cloudy
10:55 AM 59.9 °F - 50.7 °F 72% 29.71 in 10.0 mi NW 15.0 mph - N/A   Scattered Clouds
11:15 AM 60.8 °F - 51.3 °F 71% 29.72 in 10.0 mi NW 15.0 mph 20.7 mph N/A   Scattered Clouds
11:35 AM 61.0 °F - 50.5 °F 68% 29.72 in 10.0 mi NW 15.0 mph 23.0 mph N/A   Mostly Cloudy
11:55 AM 61.3 °F - 51.1 °F 69% 29.73 in 10.0 mi NW 15.0 mph 21.9 mph N/A   Scattered Clouds
12:15 PM 61.3 °F - 50.7 °F 68% 29.74 in 10.0 mi NW 18.4 mph - N/A   Mostly Cloudy
12:35 PM 61.0 °F - 50.0 °F 67% 29.74 in 10.0 mi NW 15.0 mph 21.9 mph N/A   Overcast
12:55 PM 60.4 °F - 49.8 °F 68% 29.74 in 10.0 mi NW 12.7 mph - N/A   Overcast
1:15 PM 59.9 °F - 49.3 °F 68% 29.74 in 10.0 mi NW 12.7 mph 17.3 mph N/A   Overcast
1:35 PM 59.9 °F - 49.3 °F 68% 29.75 in 10.0 mi WNW 11.5 mph 17.3 mph N/A   Overcast
1:55 PM 59.5 °F - 49.5 °F 69% 29.76 in 10.0 mi NW 16.1 mph 20.7 mph N/A   Overcast
2:15 PM 58.1 °F - 48.4 °F 70% 29.77 in 10.0 mi NW 16.1 mph - N/A   Overcast
2:35 PM 57.2 °F - 48.2 °F 72% 29.77 in 10.0 mi NW 12.7 mph - N/A   Overcast
2:55 PM 58.3 °F - 48.6 °F 70% 29.77 in 10.0 mi NW 11.5 mph 17.3 mph N/A   Overcast
3:15 PM 58.3 °F - 48.2 °F 69% 29.77 in 10.0 mi NW 10.4 mph - N/A   Overcast
3:35 PM 57.7 °F - 47.7 °F 69% 29.77 in 10.0 mi NNW 10.4 mph - N/A   Overcast
3:55 PM 57.4 °F - 47.7 °F 70% 29.78 in 10.0 mi North 11.5 mph 16.1 mph N/A   Overcast
4:15 PM 57.2 °F - 48.2 °F 72% 29.79 in 10.0 mi NW 11.5 mph - N/A   Overcast
4:35 PM 56.3 °F - 46.9 °F 71% 29.80 in 10.0 mi NNW 12.7 mph - N/A   Overcast
4:55 PM 55.4 °F - 46.8 °F 73% 29.80 in 10.0 mi NW 11.5 mph - N/A   Overcast
5:15 PM 55.0 °F - 46.6 °F 73% 29.80 in 10.0 mi NNW 6.9 mph - N/A   Overcast
5:35 PM 55.4 °F - 46.4 °F 72% 29.81 in 10.0 mi NNW 9.2 mph - N/A   Overcast
5:55 PM 54.7 °F - 46.0 °F 73% 29.82 in 10.0 mi NNW 9.2 mph - N/A   Overcast
6:15 PM 54.7 °F - 45.9 °F 72% 29.82 in 10.0 mi NNW 10.4 mph - N/A   Overcast
6:35 PM 54.7 °F - 45.9 °F 72% 29.82 in 10.0 mi North 10.4 mph - N/A   Overcast
6:55 PM 53.4 °F - 45.5 °F 75% 29.83 in 7.0 mi North 11.5 mph - N/A   Overcast
7:15 PM 52.7 °F - 45.0 °F 75% 29.83 in 7.0 mi North 12.7 mph - N/A   Overcast
7:35 PM 52.0 °F - 44.6 °F 76% 29.84 in 7.0 mi NNE 13.8 mph 18.4 mph N/A   Overcast
7:55 PM 50.9 °F - 43.7 °F 76% 29.84 in 7.0 mi NNE 11.5 mph - N/A   Overcast
8:15 PM 49.1 °F - 43.0 °F 79% 29.85 in 7.0 mi NE 18.4 mph - N/A   Overcast
8:35 PM 48.2 °F - 42.8 °F 82% 29.85 in 7.0 mi NE 16.1 mph - N/A   Overcast
8:55 PM 47.7 °F - 41.5 °F 79% 29.87 in 7.0 mi NE 15.0 mph - N/A   Overcast
9:15 PM 47.1 °F - 41.2 °F 80% 29.87 in 7.0 mi ENE 15.0 mph - N/A   Overcast
9:35 PM 46.2 °F 39.3 °F 40.6 °F 81% 29.88 in 7.0 mi NE 17.3 mph - N/A   Overcast
9:55 PM 45.9 °F 39.7 °F 40.5 °F 81% 29.88 in 7.0 mi NE 13.8 mph - N/A   Overcast
10:15 PM 45.1 °F 38.8 °F 40.1 °F 82% 29.88 in 5.0 mi ENE 13.8 mph - N/A   Haze
10:35 PM 44.6 °F 40.2 °F 39.2 °F 81% 29.90 in 7.0 mi NE 8.1 mph - N/A   Overcast
10:55 PM 44.6 °F 39.7 °F 39.2 °F 81% 29.91 in 7.0 mi NE 9.2 mph - N/A   Overcast
11:15 PM 44.6 °F 39.2 °F 39.2 °F 81% 29.91 in 5.0 mi NNE 10.4 mph - N/A   Haze
11:35 PM 44.8 °F 39.9 °F 39.4 °F 81% 29.92 in 5.0 mi NE 9.2 mph - N/A   Haze
11:55 PM 44.6 °F 38.1 °F 39.2 °F 81% 29.91 in 5.0 mi NE 13.8 mph - N/A   Haze